Starlink 32905

operational
NORAD ID: 62923 Int'l Des: 2025-027 Owner: SPXS Country: US Constellation: starlink
LEOCIRCULAR

Über Starlink 32905

Beschreibung wird geladen...

Live-Position

3D-Globus wird geladen...

Nächste Überflüge

Höhenverlauf

Altitude vs Time

uPlot chart will show altitude changes over time

Zweizeiliger Elementsatz

1 62923U 25027S 25257.43221694 .00017957 00000-0 65996-3 0 9997
2 62923 43.0002 44.4795 0001538 278.2863 81.7814 15.27605011 34586
Epoch: 14. Sept. 2025 • Age: 19 hours

Aktueller Status

Höhe 493.0 km
Geschwindigkeit 7.62 km/s
Subsatellitenpunkt -37.76°S, 83.91°W
Startdatum 8. Feb. 2025
Alter 0.5 years
Typ internet

Technische Details

Klassifizierung Payload
Masse 730.00 kg
Trockenmasse 700.00 kg
Gesamtmasse 730.00 kg
Länge 0.30 m
Durchmesser 4.10 m
Spannweite 29.00 m
Form Box + pan
Hersteller SPXS
Bus-Typ Starlink V2M
Phasenstatus In Orbit
Besitzer/Staat SPXS/US

Große Konstellationen

Loading constellations...